Torna al catalogo

STARLINK-32523

AttivoComunicazioniVLEO
NORAD 62165·PAYLOAD·🇺🇸 United States

Lanciato Nov 30, 2024 da Vandenberg Space Force Base

Loading…

Prossimi Passaggi (prossime 24 ore)

TLE

AggiornatoSource: CelesTrak SupGP

Epoca: Sep 15, 2026, 02:12 UTC

1 62165C 24225C   26258.09215278 -.00044976  00000+0 -37701-2 0  2581
2 62165  70.0018  46.9821 0002755 269.0157  92.5199 14.98344458    13

Traccia STARLINK-32523 in tempo reale con AllMySat

Download on the App Store